Location: Unspecified
(34.1750°S, 150.8048°E)
Time: 22:16:40
(UTC+10:00)

N. Korean satellite - Visible Passes

Search period start: 21 September 2018 00:00
Search period end: 01 October 2018 00:00
Orbit: 458 x 511 km, 97.2° (Epoch: 20 September)

Date Brightness Start Highest point End Pass type
(mag) Time Alt. Az. Time Alt. Az. Time Alt. Az.
21 Sep 7.1 18:27:53 10° S 18:31:23 63° WSW 18:34:48 10° NNW visible
22 Sep 9.3 05:00:16 10° NE 05:03:22 25° ESE 05:06:28 10° SSE visible
23 Sep 10.1 04:37:32 10° E 04:39:14 13° ESE 04:40:56 10° SE visible
23 Sep 9.9 19:13:50 10° SW 19:15:53 15° WSW 19:17:54 10° WNW visible
24 Sep 8.7 18:48:35 10° S 18:51:42 30° WSW 18:54:47 10° NW visible
25 Sep 6.8 18:23:57 10° S 18:27:27 72° WSW 18:30:53 10° NNW visible
26 Sep 9.5 04:56:32 10° NE 04:59:29 23° ESE 05:02:25 10° SSE visible
27 Sep 10.3 04:34:09 10° E 04:35:21 11° ESE 04:36:33 10° SE visible
27 Sep 9.8 19:09:40 10° SSW 19:11:57 16° WSW 19:14:12 10° WNW visible
28 Sep 8.4 18:44:32 10° S 18:47:45 34° WSW 18:50:55 10° NW visible
29 Sep 6.6 18:19:57 10° S 18:23:28 82° WSW 18:26:56 10° NNW visible
30 Sep 9.8 04:52:49 10° ENE 04:55:33 20° ESE 04:58:17 10° SSE visible
